Regional Weather Roundup
Issued by NWS Goodland, KS

Home | Current Version | Previous Version | Graphics & Text | Print | Product List | Glossary On
Versions: 1 2 3 4 5 6 7 8 9 10 11 12 13 14 15 16 17 18 19 20 21 22 23 24 25 26 27 28 29 30 31 32 33 34 35 36 37 38 39 40 41 42 43 44 45 46 47 48 49 50
000
ASUS43 KGLD 251559
RWRGLD

GOODLAND FORECAST AREA HOURLY WEATHER ROUNDUP
NATIONAL WEATHER SERVICE GOODLAND KS
1000 AM MDT TUE APR 25 2017

...OFFICIAL OBSERVATIONS...

CITY           SKY/WX    TMP DP  RH WIND       PRES   REMARKS
GOODLAND KS    CLOUDY    53  43  68 NE13      29.56R
HILL CITY KS   CLOUDY    54  44  69 N21G29    29.50F
IMPERIAL NEB   CLOUDY    45  42  89 E5        29.57R
MCCOOK NEB     CLOUDY    47  44  90 NE13      29.54F
AKRON CO       MOSUNNY   49  41  74 SE7       29.59R
BURLINGTON CO  NOT AVBL
LIMON CO       MOSUNNY   50  36  58 NE9       29.59S
$$

...UNOFFICIAL OBSERVATIONS...

CITY           SKY/WX    TMP DP  RH WIND       PRES   REMARKS
LENORA KS        N/A     52  32  46 MISG        N/A
NORTON KS      CLOUDY    50  41  71 N13G21    29.52S
SHARON SPRINGS   N/A     52  45  76 NE14        N/A
TRENTON NEB      N/A     47  32  56 E7          N/A
KIT CARSON CO    N/A     49  41  73 MISG        N/A
YUMA CO        PTSUNNY   48  41  76 S3        29.59R
$$



USA.gov is the U.S. government's official web portal to all federal, state and local government web resources and services.